Regional Weather Roundup
Issued by NWS

Home | Current Version | Previous Version | Text Only | Print | Product List | Glossary Off
Versions: 1 2 3 4 5 6 7 8 9 10 11 12 13 14 15 16 17 18 19 20 21 22 23 24 25 26 27 28 29 30 31 32 33 34 35 36 37 38 39 40 41 42 43 44 45 46 47 48 49 50

853
ASUS45 KBOU 240207
RWRCO

WEATHER ROUNDUP FOR COLORADO
NATIONAL WEATHER SERVICE DENVER/BOULDER CO
800 PM MDT SUN APR 23 2017

NOTE: "FAIR" INDICATES FEW OR NO CLOUDS BELOW 12000 FEET WITH NO
SIGNIFICANT WEATHER AND/OR OBSTRUCTIONS TO VISIBILITY.

COZ001>005-013-030-031-240300-
...NORTHWEST COLORADO...

CITY           SKY/WX    TMP DP  RH WIND       PRES   REMARKS
CRAIG          FAIR      56  30  37 SW5       29.75F
HAYDEN         FAIR      57  28  33 W3        29.77S
MEEKER         FAIR      62  24  23 SW9       29.77S
MOUNT WERNER   NOT AVBL
STEAMBOAT SPGS FAIR      58  27  30 CALM      29.78F
WALDEN           N/A     50  27  40 SW6       29.87S
$$

COZ006>008-011-240300-
...WEST CENTRAL VALLEYS...

CITY           SKY/WX    TMP DP  RH WIND       PRES   REMARKS
GRAND JUNCTION FAIR      68  24  19 E3        29.68F
MONTROSE       FAIR      68  20  16 SW9       29.78F
EAGLE          FAIR      63  20  19 SW13      29.81S
RIFLE          FAIR      66  24  20 W9        29.74F
DELTA          FAIR      73  18  12 SW7       29.73F
NUCLA          FAIR      68  12  11 SW13      29.81F
$$

COZ017>023-064>068-240300-
...SOUTHWEST COLORADO...

CITY           SKY/WX    TMP DP  RH WIND       PRES   REMARKS
DURANGO        FAIR      61  28  28 SE3       29.87F
CORTEZ         FAIR      66  18  15 SW8       29.82R
PAGOSA SPRINGS FAIR      57  23  27 CALM      29.94F
TELLURIDE      FAIR      56  16  20 S5        30.01S
WOLF CREEK PAS FAIR      36  19  51 S20G30    30.18F
$$

COZ009-010-012-014-032>034-037-058>063-240300-
...CENTRAL COLORADO...

CITY           SKY/WX    TMP DP  RH WIND       PRES   REMARKS
ASPEN          FAIR      59  15  18 SW9G22    29.87F
BUENA VISTA    FAIR      58  13  16 SW18G26   29.89R
COPPER MTN     FAIR      45  12  26 SW14G24   30.10S
BERTHOUD PASS  FAIR      36  27  69 W21G31    30.10F
COTTONWOOD PAS FAIR      54   7  15 W16G33    30.00S
GUNNISON       FAIR      58  16  19 W3        29.91R
KREMMLING      FAIR      63  19  19 SW9       29.83F
LEADVILLE      FAIR      48  15  26 W6G17     29.97S
MONARCH PASS   FAIR      37  14  38 SW32G39   30.22S
SALIDA         FAIR      63  11  13 SW16G24   29.96R
SUNLIGHT       FAIR      37  19  48 SW12G25   30.05R
WILKERSON PASS CLOUDY    43  18  36 SW9       30.06F
$$

COZ069>075-240300-
...SAN LUIS VALLEY/SANGRE DE CRISTO MOUNTAINS...

CITY           SKY/WX    TMP DP  RH WIND       PRES   REMARKS
ALAMOSA        FAIR      59  25  27 SW9       29.90F
LA VETA PASS   FAIR      46  19  34 MISG      30.13S
SAGUACHE       FAIR      55  18  22 NW12      29.93F
$$

COZ035-036-038>040-240300-
...NORTHERN COLORADO FRONT RANGE...

CITY           SKY/WX    TMP DP  RH WIND       PRES   REMARKS
DENVER INTL AP MOCLDY    65  35  33 SW13      29.68R
DMNS CITY PARK   N/A     66  35  30 N10G16    29.67S
AURORA         MOCLDY    65  35  32 SW15      29.69S
FRONT RANGE AP MOCLDY    64  36  34 SE6       29.69F
ERIE MUNI ARPT FAIR      60  40  47 N5        29.67F
BOULDER MUN AP FAIR      63  39  42 CALM      29.68F
CENTENNIAL     MOCLDY    64  35  34 S14       29.71R
BROOMFIELD     NOT AVBL
FORT COLLINS   FAIR      61  41  47 N7        29.69F
LONGMONT       FAIR      62  43  49 N7        29.70S
$$

COZ041-046-047-076>085-087-088-240300-
...PIKES PEAK/PALMER DIVIDE AND SOUTHERN FOOTHILLS...

CITY           SKY/WX    TMP DP  RH WIND       PRES   REMARKS
COLO. SPRINGS  MOCLDY    59  36  42 S10       29.79F
A. F. ACADEMY  FAIR      59  34  39 S12       29.79S
SCHRIEVER AFB  FAIR      56  36  45 SE9       29.79F
ELLICOTT       FAIR     N/A N/A N/A SE10      29.77F
FALCON         FAIR      55  32  42 S10       29.82F
FORT CARSON    FAIR      59  35  41 W6        29.76F
LIMON          FAIR      55  38  52 SE9       29.73F
MONUMENT HILL  FAIR      54  32  43 S16G22    29.82S
TRINIDAD       FAIR      63  29  27 SW13      29.79S
$$

COZ042>045-048>051-090-091-240300-
...NORTHEAST COLORADO...

CITY           SKY/WX    TMP DP  RH WIND       PRES   REMARKS
GREELEY ARPT   FAIR      63  39  41 E5        29.67S
AKRON          FAIR      59  37  44 SE10      29.70F
BURLINGTON     NOT AVBL
WRAY           NOT AVBL
STERLING       FAIR      61  41  48 S5        29.66F
HOLYOKE        FAIR      61  41  48 SE12      29.71F
FORT MORGAN    FAIR      61  37  40 SE10      29.69F
$$

COZ086-089-092>099-240300-
...SOUTHEAST COLORADO...

CITY           SKY/WX    TMP DP  RH WIND       PRES   REMARKS
PUEBLO         FAIR      68  41  37 CALM      29.68F
LA JUNTA       FAIR      71  40  32 S14       29.68F
LAMAR          FAIR      70  35  27 S22G33    29.68F
SPRINGFIELD      N/A     62  35  36 S20       29.80S
$$




USA.gov is the U.S. government's official web portal to all federal, state and local government web resources and services.